Time,TemperatureF,DewpointF,PressureIn,WindDirection,WindDirectionDegrees,WindSpeedMPH,WindSpeedGustMPH,Humidity,HourlyPrecipIn,Conditions,Clouds,dailyrainin,SoftwareType,DateUTC
2013-01-28 00:03:00,40.0,38.1,29.96,WSW,248,0.0,1.3,93,0.00,,,0.00,WUHU216HW,2013-01-28 08:03:00,
2013-01-28 00:08:00,40.0,38.1,29.96,WSW,248,0.0,1.1,93,0.00,,,0.00,WUHU216HW,2013-01-28 08:08:00,
2013-01-28 00:14:00,40.0,38.1,29.96,WSW,248,0.0,1.1,93,0.00,,,0.00,WUHU216HW,2013-01-28 08:14:00,
2013-01-28 00:19:00,40.0,38.1,29.96,WSW,248,0.0,0.9,93,0.00,,,0.00,WUHU216HW,2013-01-28 08:19:00,
2013-01-28 00:24:00,40.0,38.1,29.96,WSW,248,0.0,0.9,93,0.00,,,0.00,WUHU216HW,2013-01-28 08:24:00,
2013-01-28 00:29:00,40.0,38.1,29.96,SW,225,0.0,0.2,93,0.00,,,0.00,WUHU216HW,2013-01-28 08:29:00,
2013-01-28 00:34:00,40.0,38.1,29.96,SW,225,0.0,0.0,93,0.00,,,0.00,WUHU216HW,2013-01-28 08:34:00,
2013-01-28 00:39:00,40.0,38.1,29.96,SSW,203,0.0,0.4,93,0.00,,,0.00,WUHU216HW,2013-01-28 08:39:00,
2013-01-28 00:44:00,40.0,38.1,29.96,SE,135,0.2,0.9,93,0.00,,,0.00,WUHU216HW,2013-01-28 08:44:00,
2013-01-28 00:49:00,40.0,38.1,29.96,SE,135,0.0,0.9,93,0.00,,,0.00,WUHU216HW,2013-01-28 08:49:00,
2013-01-28 00:54:00,40.0,38.1,29.95,ESE,113,0.4,0.7,93,0.00,,,0.00,WUHU216HW,2013-01-28 08:54:00,
2013-01-28 00:59:00,40.0,38.3,29.95,ESE,113,0.0,0.4,94,0.00,,,0.00,WUHU216HW,2013-01-28 08:59:00,
2013-01-28 01:04:00,40.0,38.3,29.96,ESE,113,0.2,0.7,94,0.00,,,0.00,WUHU216HW,2013-01-28 09:04:00,
2013-01-28 01:09:00,40.0,38.3,29.96,South,180,0.7,0.9,94,0.00,,,0.00,WUHU216HW,2013-01-28 09:09:00,
2013-01-28 01:14:00,40.0,38.3,29.96,SSW,203,1.1,1.6,94,0.01,,,0.00,WUHU216HW,2013-01-28 09:14:00,
2013-01-28 01:19:00,40.0,38.3,29.96,SSE,158,1.8,1.8,94,0.01,,,0.00,WUHU216HW,2013-01-28 09:19:00,
2013-01-28 01:24:00,40.0,38.3,29.96,SSE,158,1.3,1.8,94,0.01,,,0.00,WUHU216HW,2013-01-28 09:24:00,
2013-01-28 01:29:00,40.0,38.3,29.96,SSE,158,0.4,1.8,94,0.01,,,0.00,WUHU216HW,2013-01-28 09:29:00,
2013-01-28 01:34:00,40.0,38.3,29.96,SE,135,0.7,1.8,94,0.01,,,0.00,WUHU216HW,2013-01-28 09:34:00,
2013-01-28 01:39:00,40.0,38.3,29.96,WSW,248,0.2,1.1,94,0.01,,,0.00,WUHU216HW,2013-01-28 09:39:00,
2013-01-28 01:44:00,40.0,38.3,29.96,SSE,158,1.1,1.1,94,0.01,,,0.00,WUHU216HW,2013-01-28 09:44:00,
2013-01-28 01:49:00,40.0,38.3,29.96,SE,135,0.7,1.1,94,0.01,,,0.00,WUHU216HW,2013-01-28 09:49:00,
2013-01-28 01:54:00,40.0,38.3,29.96,SSE,158,0.7,1.8,94,0.01,,,0.00,WUHU216HW,2013-01-28 09:54:00,
2013-01-28 01:59:00,40.0,38.3,29.96,SSE,158,0.0,1.8,94,0.01,,,0.00,WUHU216HW,2013-01-28 09:59:00,
2013-01-28 02:04:00,40.0,38.3,29.96,SSE,158,1.3,1.6,94,0.01,,,0.00,WUHU216HW,2013-01-28 10:04:00,
2013-01-28 02:09:00,40.0,38.3,29.96,SSE,158,0.7,1.8,94,0.01,,,0.00,WUHU216HW,2013-01-28 10:09:00,
2013-01-28 02:14:00,40.0,38.3,29.96,SSW,203,4.0,4.0,94,0.00,,,0.00,WUHU216HW,2013-01-28 10:14:00,
2013-01-28 02:19:00,40.0,38.3,29.96,SE,135,0.0,4.0,94,0.00,,,0.00,WUHU216HW,2013-01-28 10:19:00,
2013-01-28 02:24:00,40.0,38.3,29.97,South,180,0.0,1.6,94,0.00,,,0.00,WUHU216HW,2013-01-28 10:24:00,
2013-01-28 02:29:00,39.8,38.2,29.96,SE,135,1.1,1.8,94,0.00,,,0.00,WUHU216HW,2013-01-28 10:29:00,
2013-01-28 02:34:00,39.8,38.2,29.96,West,270,0.7,2.2,94,0.00,,,0.00,WUHU216HW,2013-01-28 10:34:00,
2013-01-28 02:39:00,39.8,38.2,29.96,South,180,0.4,2.2,94,0.00,,,0.00,WUHU216HW,2013-01-28 10:39:00,
2013-01-28 02:44:00,39.8,38.2,29.97,SE,135,0.9,2.0,94,0.00,,,0.00,WUHU216HW,2013-01-28 10:44:00,
2013-01-28 02:49:00,39.8,38.2,29.97,SSE,158,0.0,2.0,94,0.00,,,0.00,WUHU216HW,2013-01-28 10:49:00,
2013-01-28 02:54:00,39.8,38.2,29.97,SSE,158,2.5,2.5,94,0.00,,,0.00,WUHU216HW,2013-01-28 10:54:00,
2013-01-28 02:59:00,39.8,38.2,29.97,WSW,248,0.9,2.5,94,0.00,,,0.00,WUHU216HW,2013-01-28 10:59:00,
2013-01-28 03:04:00,39.8,38.2,29.97,SW,225,0.4,2.0,94,0.00,,,0.00,WUHU216HW,2013-01-28 11:04:00,
2013-01-28 03:09:00,39.8,38.2,29.96,SSE,158,0.2,2.0,94,0.00,,,0.00,WUHU216HW,2013-01-28 11:09:00,
2013-01-28 03:14:00,39.8,38.2,29.97,SW,225,0.9,1.1,94,0.00,,,0.00,WUHU216HW,2013-01-28 11:14:00,
2013-01-28 03:19:00,39.8,38.2,29.97,SW,225,0.2,1.1,94,0.00,,,0.00,WUHU216HW,2013-01-28 11:19:00,
2013-01-28 03:24:00,39.8,38.2,29.97,WSW,248,1.3,1.3,94,0.00,,,0.00,WUHU216HW,2013-01-28 11:24:00,
2013-01-28 03:29:00,39.8,38.2,29.97,South,180,0.4,1.3,94,0.00,,,0.00,WUHU216HW,2013-01-28 11:29:00,
2013-01-28 03:34:00,39.8,38.2,29.97,SSW,203,0.4,0.9,94,0.00,,,0.00,WUHU216HW,2013-01-28 11:34:00,
2013-01-28 03:39:00,39.8,38.2,29.97,SSE,158,0.4,0.7,94,0.00,,,0.00,WUHU216HW,2013-01-28 11:39:00,
2013-01-28 03:44:00,39.8,38.2,29.97,SE,135,1.3,1.3,94,0.00,,,0.00,WUHU216HW,2013-01-28 11:44:00,
2013-01-28 03:49:00,39.8,38.2,29.97,South,180,0.4,1.3,94,0.00,,,0.00,WUHU216HW,2013-01-28 11:49:00,
2013-01-28 03:54:00,39.8,38.2,29.97,SSE,158,1.3,2.0,94,0.00,,,0.00,WUHU216HW,2013-01-28 11:54:00,
2013-01-28 03:59:00,39.8,38.2,29.97,WSW,248,0.4,2.0,94,0.00,,,0.00,WUHU216HW,2013-01-28 11:59:00,
2013-01-28 04:04:00,39.8,38.2,29.97,ESE,113,0.0,1.8,94,0.00,,,0.00,WUHU216HW,2013-01-28 12:04:00,
2013-01-28 04:09:00,39.8,38.2,29.98,SSW,203,1.1,2.5,94,0.00,,,0.00,WUHU216HW,2013-01-28 12:09:00,
2013-01-28 04:14:00,39.8,38.2,29.98,SSW,203,0.0,2.5,94,0.00,,,0.00,WUHU216HW,2013-01-28 12:14:00,
2013-01-28 04:19:00,39.8,38.2,29.98,SW,225,0.4,1.6,94,0.00,,,0.00,WUHU216HW,2013-01-28 12:19:00,
2013-01-28 04:24:00,39.8,38.2,29.98,WSW,248,1.6,2.7,94,0.00,,,0.00,WUHU216HW,2013-01-28 12:24:00,
2013-01-28 04:29:00,39.8,38.2,29.98,SE,135,0.9,2.7,94,0.00,,,0.00,WUHU216HW,2013-01-28 12:29:00,
2013-01-28 04:34:00,39.8,38.2,29.98,SW,225,0.0,1.8,94,0.00,,,0.00,WUHU216HW,2013-01-28 12:34:00,
2013-01-28 04:39:00,39.6,38.0,29.98,SSE,158,1.6,1.6,94,0.00,,,0.00,WUHU216HW,2013-01-28 12:39:00,
2013-01-28 04:44:00,39.8,38.2,29.98,West,270,1.1,1.6,94,0.00,,,0.00,WUHU216HW,2013-01-28 12:44:00,
2013-01-28 04:49:00,39.6,38.0,29.98,WSW,248,1.8,1.8,94,0.00,,,0.00,WUHU216HW,2013-01-28 12:49:00,
2013-01-28 04:54:00,39.6,38.0,29.98,West,270,1.1,1.8,94,0.00,,,0.00,WUHU216HW,2013-01-28 12:54:00,
2013-01-28 04:59:00,39.6,38.0,29.98,WNW,293,0.0,1.3,94,0.00,,,0.00,WUHU216HW,2013-01-28 12:59:00,
2013-01-28 05:04:00,39.6,38.0,29.98,West,270,0.0,1.3,94,0.00,,,0.00,WUHU216HW,2013-01-28 13:04:00,
2013-01-28 05:09:00,39.6,38.0,29.98,WSW,248,0.0,1.1,94,0.00,,,0.00,WUHU216HW,2013-01-28 13:09:00,
2013-01-28 05:14:00,39.6,38.0,29.98,SE,135,2.0,2.0,94,0.00,,,0.00,WUHU216HW,2013-01-28 13:14:00,
2013-01-28 05:19:00,39.6,38.0,29.98,SSW,203,0.0,2.0,94,0.00,,,0.00,WUHU216HW,2013-01-28 13:19:00,
2013-01-28 05:24:00,39.6,38.0,29.98,SW,225,0.0,1.1,94,0.00,,,0.00,WUHU216HW,2013-01-28 13:24:00,
2013-01-28 05:29:00,39.6,38.0,29.98,SSW,203,0.7,2.0,94,0.00,,,0.00,WUHU216HW,2013-01-28 13:29:00,
2013-01-28 05:34:00,39.4,37.8,29.98,SSW,203,0.0,2.0,94,0.00,,,0.00,WUHU216HW,2013-01-28 13:34:00,
2013-01-28 05:39:00,39.4,37.8,29.98,WSW,248,1.3,1.3,94,0.00,,,0.00,WUHU216HW,2013-01-28 13:39:00,
2013-01-28 05:44:00,39.4,37.8,29.99,WSW,248,0.0,1.3,94,0.00,,,0.00,WUHU216HW,2013-01-28 13:44:00,
2013-01-28 05:49:00,39.4,37.8,29.99,WSW,248,0.9,1.3,94,0.00,,,0.00,WUHU216HW,2013-01-28 13:49:00,
2013-01-28 05:54:00,39.2,37.6,29.99,WNW,293,0.0,0.9,94,0.00,,,0.00,WUHU216HW,2013-01-28 13:54:00,
2013-01-28 05:59:00,39.2,37.6,29.99,WSW,248,1.6,1.6,94,0.00,,,0.00,WUHU216HW,2013-01-28 13:59:00,
2013-01-28 06:04:00,39.2,37.6,29.99,WSW,248,0.2,1.6,94,0.00,,,0.00,WUHU216HW,2013-01-28 14:04:00,
2013-01-28 06:09:00,39.2,37.6,29.99,SW,225,0.0,1.1,94,0.00,,,0.00,WUHU216HW,2013-01-28 14:09:00,
2013-01-28 06:14:00,39.2,37.6,29.99,SW,225,1.1,1.1,94,0.00,,,0.00,WUHU216HW,2013-01-28 14:14:00,
2013-01-28 06:19:00,39.2,37.6,29.99,SW,225,0.0,1.1,94,0.00,,,0.00,WUHU216HW,2013-01-28 14:19:00,
2013-01-28 06:24:00,39.2,37.6,29.99,SE,135,0.0,0.4,94,0.00,,,0.00,WUHU216HW,2013-01-28 14:24:00,
2013-01-28 06:29:00,39.2,37.6,29.99,SSW,203,0.2,0.9,94,0.00,,,0.00,WUHU216HW,2013-01-28 14:29:00,
2013-01-28 06:34:00,39.2,37.6,29.99,WSW,248,2.0,2.0,94,0.00,,,0.00,WUHU216HW,2013-01-28 14:34:00,
2013-01-28 06:39:00,39.2,37.6,29.99,WSW,248,0.0,2.0,94,0.00,,,0.00,WUHU216HW,2013-01-28 14:39:00,
2013-01-28 06:44:00,39.2,37.6,30.00,West,270,0.0,0.2,94,0.00,,,0.00,WUHU216HW,2013-01-28 14:44:00,
2013-01-28 06:49:00,39.2,37.6,30.00,WSW,248,0.0,0.4,94,0.00,,,0.00,WUHU216HW,2013-01-28 14:49:00,
2013-01-28 06:54:00,39.2,37.6,30.00,WSW,248,0.0,0.7,94,0.00,,,0.00,WUHU216HW,2013-01-28 14:54:00,
2013-01-28 06:59:00,39.2,37.6,30.00,SSW,203,0.0,2.5,94,0.00,,,0.00,WUHU216HW,2013-01-28 14:59:00,
2013-01-28 07:04:00,39.2,37.6,30.00,WSW,248,0.0,2.5,94,0.00,,,0.00,WUHU216HW,2013-01-28 15:04:00,
2013-01-28 07:09:00,39.2,37.6,30.00,WSW,248,0.4,1.8,94,0.00,,,0.00,WUHU216HW,2013-01-28 15:09:00,
2013-01-28 07:14:00,39.2,37.6,30.00,WSW,248,0.0,0.9,94,0.00,,,0.00,WUHU216HW,2013-01-28 15:14:00,
2013-01-28 07:19:00,39.2,37.6,30.00,SW,225,0.4,1.1,94,0.00,,,0.00,WUHU216HW,2013-01-28 15:19:00,
2013-01-28 07:24:00,39.4,37.8,30.00,WSW,248,0.0,1.8,94,0.00,,,0.00,WUHU216HW,2013-01-28 15:24:00,
2013-01-28 07:29:00,39.4,37.8,30.01,WSW,248,1.6,1.8,94,0.00,,,0.00,WUHU216HW,2013-01-28 15:29:00,
2013-01-28 07:34:00,39.4,37.8,30.01,WSW,248,0.0,1.6,94,0.00,,,0.00,WUHU216HW,2013-01-28 15:34:00,
2013-01-28 07:39:00,39.6,38.0,30.01,WSW,248,0.2,1.1,94,0.00,,,0.00,WUHU216HW,2013-01-28 15:39:00,
2013-01-28 07:44:00,39.4,37.8,30.02,SW,225,0.0,1.8,94,0.00,,,0.00,WUHU216HW,2013-01-28 15:44:00,
2013-01-28 07:49:00,39.6,38.0,30.01,South,180,0.4,2.0,94,0.00,,,0.00,WUHU216HW,2013-01-28 15:49:00,
2013-01-28 07:54:00,39.6,38.0,30.00,SW,225,1.8,2.0,94,0.00,,,0.00,WUHU216HW,2013-01-28 15:54:00,
2013-01-28 07:59:00,39.6,38.0,30.01,WSW,248,0.0,1.8,94,0.00,,,0.00,WUHU216HW,2013-01-28 15:59:00,
2013-01-28 08:04:00,39.6,38.0,30.01,WSW,248,1.1,1.1,94,0.00,,,0.00,WUHU216HW,2013-01-28 16:04:00,
2013-01-28 08:09:00,39.6,38.0,30.01,WSW,248,0.4,1.1,94,0.00,,,0.00,WUHU216HW,2013-01-28 16:09:00,
2013-01-28 08:14:00,39.6,38.0,30.01,NNE,23,0.0,1.1,94,0.00,,,0.00,WUHU216HW,2013-01-28 16:14:00,
2013-01-28 08:19:00,39.6,38.0,30.01,West,270,0.4,1.1,94,0.00,,,0.00,WUHU216HW,2013-01-28 16:19:00,
2013-01-28 08:24:00,39.6,38.0,30.01,SW,225,0.0,1.1,94,0.00,,,0.00,WUHU216HW,2013-01-28 16:24:00,
2013-01-28 08:29:00,39.6,38.0,30.01,SSW,203,0.7,0.7,94,0.00,,,0.00,WUHU216HW,2013-01-28 16:29:00,
2013-01-28 08:34:00,39.6,38.0,30.01,SW,225,0.4,1.1,94,0.00,,,0.00,WUHU216HW,2013-01-28 16:34:00,
2013-01-28 08:39:00,39.8,38.2,30.00,SW,225,0.0,1.1,94,0.00,,,0.00,WUHU216HW,2013-01-28 16:39:00,
2013-01-28 08:44:00,39.8,38.2,30.00,SSW,203,0.0,0.4,94,0.00,,,0.00,WUHU216HW,2013-01-28 16:44:00,
2013-01-28 08:49:00,39.8,38.2,30.00,WSW,248,0.4,1.1,94,0.00,,,0.00,WUHU216HW,2013-01-28 16:49:00,
2013-01-28 08:54:00,39.8,38.2,30.00,WSW,248,0.4,2.2,94,0.00,,,0.00,WUHU216HW,2013-01-28 16:54:00,
2013-01-28 08:59:00,39.8,38.2,30.00,WSW,248,0.0,2.2,94,0.00,,,0.00,WUHU216HW,2013-01-28 16:59:00,
2013-01-28 09:04:00,40.0,38.3,29.99,SW,225,0.0,1.8,94,0.00,,,0.00,WUHU216HW,2013-01-28 17:04:00,
2013-01-28 09:09:00,40.0,38.3,30.00,SW,225,0.2,1.8,94,0.00,,,0.00,WUHU216HW,2013-01-28 17:09:00,
2013-01-28 09:14:00,40.0,38.3,30.00,SSW,203,0.9,0.9,94,0.01,,,0.00,WUHU216HW,2013-01-28 17:14:00,
2013-01-28 09:19:00,40.0,38.3,30.00,SW,225,0.7,1.8,94,0.01,,,0.00,WUHU216HW,2013-01-28 17:19:00,
2013-01-28 09:24:00,40.0,38.3,30.00,WSW,248,1.1,1.8,94,0.01,,,0.00,WUHU216HW,2013-01-28 17:24:00,
2013-01-28 09:29:00,40.0,38.3,30.01,WSW,248,0.0,2.2,94,0.01,,,0.00,WUHU216HW,2013-01-28 17:29:00,
2013-01-28 09:34:00,40.1,38.5,30.01,SW,225,2.2,2.2,94,0.01,,,0.00,WUHU216HW,2013-01-28 17:34:00,
2013-01-28 09:39:00,40.1,38.5,30.01,WSW,248,1.8,2.2,94,0.01,,,0.00,WUHU216HW,2013-01-28 17:39:00,
2013-01-28 09:44:00,40.1,38.5,30.01,SW,225,0.7,2.0,94,0.01,,,0.00,WUHU216HW,2013-01-28 17:44:00,
2013-01-28 09:49:00,40.1,38.5,30.00,WSW,248,1.3,1.3,94,0.01,,,0.00,WUHU216HW,2013-01-28 17:49:00,
2013-01-28 09:54:00,40.3,38.7,30.01,WSW,248,0.0,3.1,94,0.01,,,0.00,WUHU216HW,2013-01-28 17:54:00,
2013-01-28 09:59:00,40.3,39.0,30.01,SW,225,0.9,3.1,95,0.01,,,0.00,WUHU216HW,2013-01-28 17:59:00,
2013-01-28 10:04:00,40.3,39.0,30.00,SSW,203,0.4,1.3,95,0.01,,,0.00,WUHU216HW,2013-01-28 18:04:00,
2013-01-28 10:09:00,40.3,39.0,30.01,SW,225,0.0,1.1,95,0.00,,,0.00,WUHU216HW,2013-01-28 18:09:00,
2013-01-28 10:14:00,40.3,39.0,30.01,South,180,0.4,2.7,95,0.00,,,0.00,WUHU216HW,2013-01-28 18:14:00,
2013-01-28 10:19:00,40.3,39.0,30.01,North,0,0.0,2.7,95,0.00,,,0.00,WUHU216HW,2013-01-28 18:19:00,
2013-01-28 10:24:00,40.5,39.2,30.01,South,180,0.2,1.8,95,0.00,,,0.00,WUHU216HW,2013-01-28 18:24:00,
2013-01-28 10:29:00,40.5,39.2,30.01,SSE,158,1.3,1.3,95,0.01,,,0.00,WUHU216HW,2013-01-28 18:29:00,
2013-01-28 10:34:00,40.5,39.2,30.01,SW,225,0.4,1.8,95,0.01,,,0.00,WUHU216HW,2013-01-28 18:34:00,
2013-01-28 10:39:00,40.5,39.2,30.01,SW,225,0.7,1.8,95,0.01,,,0.00,WUHU216HW,2013-01-28 18:39:00,
2013-01-28 10:44:00,40.5,39.2,30.01,SSW,203,0.7,1.3,95,0.01,,,0.00,WUHU216HW,2013-01-28 18:44:00,
2013-01-28 10:49:00,40.7,39.3,30.01,WSW,248,0.7,1.1,95,0.01,,,0.00,WUHU216HW,2013-01-28 18:49:00,
2013-01-28 10:54:00,40.7,39.3,30.01,South,180,0.0,1.1,95,0.01,,,0.00,WUHU216HW,2013-01-28 18:54:00,
2013-01-28 10:59:00,40.7,39.3,30.01,SSW,203,0.4,1.1,95,0.01,,,0.00,WUHU216HW,2013-01-28 18:59:00,
2013-01-28 11:04:00,40.7,39.3,30.01,SW,225,0.0,1.1,95,0.01,,,0.00,WUHU216HW,2013-01-28 19:04:00,
2013-01-28 11:09:00,40.7,39.3,30.01,SSW,203,0.2,1.1,95,0.01,,,0.00,WUHU216HW,2013-01-28 19:09:00,
2013-01-28 11:14:00,40.7,39.3,30.01,WSW,248,1.6,1.6,95,0.02,,,0.00,WUHU216HW,2013-01-28 19:14:00,
2013-01-28 11:19:00,40.7,39.3,30.01,WSW,248,0.9,1.6,95,0.02,,,0.00,WUHU216HW,2013-01-28 19:19:00,
2013-01-28 11:24:00,40.9,39.5,30.01,WSW,248,0.0,1.1,95,0.01,,,0.00,WUHU216HW,2013-01-28 19:24:00,
2013-01-28 11:29:00,40.9,39.5,30.01,WSW,248,0.4,0.4,95,0.01,,,0.00,WUHU216HW,2013-01-28 19:29:00,
2013-01-28 11:34:00,41.0,39.7,30.01,WSW,248,0.4,1.1,95,0.01,,,0.00,WUHU216HW,2013-01-28 19:34:00,
2013-01-28 11:39:00,41.0,39.7,30.01,West,270,0.4,1.1,95,0.01,,,0.00,WUHU216HW,2013-01-28 19:39:00,
2013-01-28 11:44:00,41.0,39.7,30.01,West,270,1.6,1.6,95,0.02,,,0.00,WUHU216HW,2013-01-28 19:44:00,
2013-01-28 11:49:00,41.0,39.7,30.01,SW,225,0.2,1.6,95,0.02,,,0.00,WUHU216HW,2013-01-28 19:49:00,
2013-01-28 11:54:00,41.0,39.7,30.01,WSW,248,1.8,1.8,95,0.02,,,0.00,WUHU216HW,2013-01-28 19:54:00,
2013-01-28 11:59:00,41.0,39.7,30.01,WSW,248,0.4,1.8,95,0.02,,,0.00,WUHU216HW,2013-01-28 19:59:00,
2013-01-28 12:04:00,41.0,39.7,30.01,SW,225,0.0,0.4,95,0.02,,,0.00,WUHU216HW,2013-01-28 20:04:00,
2013-01-28 12:09:00,41.0,39.7,30.01,SW,225,1.6,1.6,95,0.03,,,0.00,WUHU216HW,2013-01-28 20:09:00,
2013-01-28 12:14:00,41.0,39.7,30.00,West,270,0.4,2.2,95,0.02,,,0.00,WUHU216HW,2013-01-28 20:14:00,
2013-01-28 12:19:00,41.0,39.7,30.00,SW,225,1.8,2.5,95,0.02,,,0.00,WUHU216HW,2013-01-28 20:19:00,
2013-01-28 12:24:00,41.0,39.7,30.00,SW,225,0.9,2.5,95,0.02,,,0.00,WUHU216HW,2013-01-28 20:24:00,
2013-01-28 12:29:00,41.0,39.7,30.00,SSW,203,1.3,3.4,95,0.03,,,0.00,WUHU216HW,2013-01-28 20:29:00,
2013-01-28 12:34:00,41.0,39.7,30.00,SW,225,1.1,3.4,95,0.03,,,0.00,WUHU216HW,2013-01-28 20:34:00,
2013-01-28 12:39:00,40.9,39.5,30.00,WSW,248,0.4,2.5,95,0.03,,,0.00,WUHU216HW,2013-01-28 20:39:00,
2013-01-28 12:44:00,41.0,39.7,30.00,SW,225,0.4,2.5,95,0.02,,,0.00,WUHU216HW,2013-01-28 20:44:00,
2013-01-28 12:49:00,40.9,39.5,30.00,SW,225,0.9,2.5,95,0.03,,,0.00,WUHU216HW,2013-01-28 20:49:00,
2013-01-28 12:54:00,40.9,39.5,29.99,SSW,203,1.1,2.2,95,0.03,,,0.00,WUHU216HW,2013-01-28 20:54:00,
2013-01-28 12:59:00,40.9,39.5,29.99,WSW,248,1.8,2.2,95,0.03,,,0.00,WUHU216HW,2013-01-28 20:59:00,
2013-01-28 13:04:00,40.9,39.5,29.99,South,180,2.0,2.0,95,0.03,,,0.00,WUHU216HW,2013-01-28 21:04:00,
2013-01-28 13:09:00,40.9,39.5,29.99,SSW,203,2.0,2.0,95,0.03,,,0.00,WUHU216HW,2013-01-28 21:09:00,
2013-01-28 13:14:00,40.9,39.5,29.99,WSW,248,1.1,2.0,95,0.03,,,0.00,WUHU216HW,2013-01-28 21:14:00,
2013-01-28 13:19:00,40.9,39.5,29.99,SW,225,0.4,2.5,95,0.03,,,0.00,WUHU216HW,2013-01-28 21:19:00,
2013-01-28 13:24:00,40.9,39.5,29.99,SW,225,0.4,2.5,95,0.03,,,0.00,WUHU216HW,2013-01-28 21:24:00,
2013-01-28 13:29:00,41.0,39.7,29.99,WSW,248,0.4,2.5,95,0.03,,,0.00,WUHU216HW,2013-01-28 21:29:00,
2013-01-28 13:34:00,41.0,39.7,29.98,SW,225,1.8,1.8,95,0.03,,,0.00,WUHU216HW,2013-01-28 21:34:00,
2013-01-28 13:39:00,41.0,39.7,29.99,WSW,248,0.2,1.8,95,0.03,,,0.00,WUHU216HW,2013-01-28 21:39:00,
2013-01-28 13:44:00,41.0,39.7,29.99,SW,225,0.0,1.1,95,0.03,,,0.00,WUHU216HW,2013-01-28 21:44:00,
2013-01-28 13:49:00,41.0,39.7,29.98,SW,225,0.0,1.6,95,0.03,,,0.00,WUHU216HW,2013-01-28 21:49:00,
2013-01-28 13:54:00,41.0,39.7,29.98,SW,225,0.0,1.6,95,0.03,,,0.00,WUHU216HW,2013-01-28 21:54:00,
2013-01-28 13:59:00,41.2,39.9,29.98,SW,225,0.0,0.0,95,0.03,,,0.00,WUHU216HW,2013-01-28 21:59:00,
2013-01-28 14:04:00,41.2,39.9,29.97,WSW,248,1.1,1.1,95,0.02,,,0.00,WUHU216HW,2013-01-28 22:04:00,
2013-01-28 14:09:00,41.2,39.9,29.97,SW,225,0.2,1.1,95,0.02,,,0.00,WUHU216HW,2013-01-28 22:09:00,
2013-01-28 14:14:00,41.2,39.9,29.97,WSW,248,0.2,0.9,95,0.03,,,0.00,WUHU216HW,2013-01-28 22:14:00,
2013-01-28 14:19:00,41.2,39.9,29.97,WSW,248,0.9,0.9,95,0.03,,,0.00,WUHU216HW,2013-01-28 22:19:00,
2013-01-28 14:24:00,41.4,40.1,29.97,SSE,158,0.0,0.9,95,0.02,,,0.00,WUHU216HW,2013-01-28 22:24:00,
2013-01-28 14:29:00,41.4,40.1,29.97,SSW,203,0.0,0.7,95,0.02,,,0.00,WUHU216HW,2013-01-28 22:29:00,
2013-01-28 14:34:00,41.4,40.1,29.96,SSW,203,0.2,0.4,95,0.03,,,0.00,WUHU216HW,2013-01-28 22:34:00,
2013-01-28 14:39:00,41.4,40.1,29.96,SSW,203,0.2,0.4,95,0.03,,,0.00,WUHU216HW,2013-01-28 22:39:00,
2013-01-28 14:44:00,41.4,40.1,29.96,SSE,158,0.9,0.9,95,0.02,,,0.00,WUHU216HW,2013-01-28 22:44:00,
2013-01-28 14:50:00,41.4,40.1,29.96,SSE,158,0.4,0.9,95,0.03,,,0.00,WUHU216HW,2013-01-28 22:50:00,
2013-01-28 14:55:00,41.4,40.1,29.97,SSE,158,0.0,2.2,95,0.03,,,0.00,WUHU216HW,2013-01-28 22:55:00,
2013-01-28 15:00:00,41.6,40.2,29.96,SW,225,0.4,2.2,95,0.03,,,0.00,WUHU216HW,2013-01-28 23:00:00,
2013-01-28 15:05:00,41.6,40.2,29.96,SW,225,0.0,1.1,95,0.04,,,0.00,WUHU216HW,2013-01-28 23:05:00,
2013-01-28 15:10:00,41.6,40.2,29.96,SW,225,0.0,1.1,95,0.03,,,0.00,WUHU216HW,2013-01-28 23:10:00,
2013-01-28 15:15:00,41.6,40.2,29.97,SW,225,0.0,0.4,95,0.03,,,0.00,WUHU216HW,2013-01-28 23:15:00,
2013-01-28 15:19:00,41.6,40.2,29.97,West,270,0.0,1.8,95,0.04,,,0.00,WUHU216HW,2013-01-28 23:19:00,
2013-01-28 15:24:00,41.8,40.4,29.97,WSW,248,0.0,1.8,95,0.04,,,0.00,WUHU216HW,2013-01-28 23:24:00,
2013-01-28 15:29:00,41.8,40.4,29.96,West,270,1.1,1.1,95,0.03,,,0.00,WUHU216HW,2013-01-28 23:29:00,
2013-01-28 15:35:00,41.8,40.4,29.96,West,270,1.1,1.1,95,0.03,,,0.00,WUHU216HW,2013-01-28 23:35:00,
2013-01-28 15:40:00,41.8,40.4,29.97,SSE,158,0.2,1.1,95,0.03,,,0.00,WUHU216HW,2013-01-28 23:40:00,
2013-01-28 15:45:00,41.8,40.4,29.97,SSW,203,0.4,0.9,95,0.04,,,0.00,WUHU216HW,2013-01-28 23:45:00,
2013-01-28 15:50:00,41.8,40.4,29.96,WSW,248,0.0,0.9,95,0.03,,,0.00,WUHU216HW,2013-01-28 23:50:00,
2013-01-28 15:55:00,41.8,40.4,29.96,SW,225,0.9,1.1,95,0.04,,,0.00,WUHU216HW,2013-01-28 23:55:00,
2013-01-28 16:00:00,41.8,40.4,29.96,SSW,203,0.0,1.1,95,0.03,,,0.00,WUHU216HW,2013-01-29 00:00:00,
2013-01-28 16:05:00,41.8,40.4,29.96,SW,225,0.0,1.1,95,0.03,,,0.00,WUHU216HW,2013-01-29 00:05:00,
2013-01-28 16:10:00,41.8,40.4,29.96,WSW,248,0.2,1.1,95,0.04,,,0.00,WUHU216HW,2013-01-29 00:10:00,
2013-01-28 16:15:00,41.8,40.4,29.96,SSW,203,0.0,0.4,95,0.03,,,0.00,WUHU216HW,2013-01-29 00:15:00,
2013-01-28 16:20:00,41.8,40.4,29.96,WSW,248,0.0,0.9,95,0.03,,,0.00,WUHU216HW,2013-01-29 00:20:00,
2013-01-28 16:25:00,41.8,40.4,29.96,SSE,158,0.4,0.9,95,0.03,,,0.00,WUHU216HW,2013-01-29 00:25:00,
2013-01-28 16:30:00,41.8,40.4,29.96,WSW,248,0.2,0.9,95,0.04,,,0.00,WUHU216HW,2013-01-29 00:30:00,
2013-01-28 16:35:00,41.8,40.4,29.96,SSW,203,0.7,0.9,95,0.04,,,0.00,WUHU216HW,2013-01-29 00:35:00,
2013-01-28 16:40:00,41.8,40.4,29.97,WSW,248,0.0,0.7,95,0.03,,,0.00,WUHU216HW,2013-01-29 00:40:00,
2013-01-28 16:45:00,41.8,40.4,29.96,WSW,248,0.0,0.0,95,0.03,,,0.00,WUHU216HW,2013-01-29 00:45:00,
2013-01-28 16:50:00,41.8,40.4,29.97,WSW,248,0.7,0.9,95,0.04,,,0.00,WUHU216HW,2013-01-29 00:50:00,
2013-01-28 16:55:00,41.9,40.6,29.97,WSW,248,0.0,0.9,95,0.03,,,0.00,WUHU216HW,2013-01-29 00:55:00,
2013-01-28 17:00:00,41.9,40.6,29.97,WSW,248,0.0,0.0,95,0.04,,,0.00,WUHU216HW,2013-01-29 01:00:00,
2013-01-28 17:05:00,41.9,40.6,29.97,SSE,158,0.7,0.7,95,0.04,,,0.00,WUHU216HW,2013-01-29 01:05:00,
2013-01-28 17:10:00,41.9,40.6,29.98,North,0,0.7,1.1,95,0.04,,,0.00,WUHU216HW,2013-01-29 01:10:00,
2013-01-28 17:15:00,41.9,40.6,29.96,ESE,113,0.9,1.1,95,0.04,,,0.00,WUHU216HW,2013-01-29 01:15:00,
2013-01-28 17:20:00,41.9,40.6,29.98,ESE,113,0.0,1.1,95,0.04,,,0.00,WUHU216HW,2013-01-29 01:20:00,
2013-01-28 17:25:00,41.9,40.6,29.97,NNE,23,0.0,0.4,95,0.05,,,0.00,WUHU216HW,2013-01-29 01:25:00,
2013-01-28 17:30:00,41.9,40.6,29.97,NNE,23,0.0,0.4,95,0.05,,,0.00,WUHU216HW,2013-01-29 01:30:00,
2013-01-28 17:35:00,41.9,40.6,29.97,East,90,0.0,0.4,95,0.05,,,0.00,WUHU216HW,2013-01-29 01:35:00,
2013-01-28 17:40:00,41.9,40.6,29.98,East,90,0.2,1.1,95,0.05,,,0.00,WUHU216HW,2013-01-29 01:40:00,
2013-01-28 17:45:00,42.1,40.8,29.98,East,90,0.0,1.1,95,0.04,,,0.00,WUHU216HW,2013-01-29 01:45:00,
2013-01-28 17:49:00,42.1,40.8,29.98,ESE,113,0.2,0.2,95,0.05,,,0.00,WUHU216HW,2013-01-29 01:49:00,
2013-01-28 17:54:00,42.1,40.8,29.98,ESE,113,0.2,0.4,95,0.05,,,0.00,WUHU216HW,2013-01-29 01:54:00,
2013-01-28 18:00:00,42.1,40.8,29.98,ESE,113,0.4,0.4,95,0.04,,,0.00,WUHU216HW,2013-01-29 02:00:00,
2013-01-28 18:05:00,42.1,40.8,29.98,WSW,248,1.3,1.3,95,0.05,,,0.00,WUHU216HW,2013-01-29 02:05:00,
2013-01-28 18:10:00,42.1,40.8,29.99,WSW,248,0.0,1.3,95,0.04,,,0.00,WUHU216HW,2013-01-29 02:10:00,
2013-01-28 18:15:00,42.1,40.8,29.99,WSW,248,0.0,0.4,95,0.04,,,0.00,WUHU216HW,2013-01-29 02:15:00,
2013-01-28 18:20:00,42.1,41.0,29.99,SW,225,0.9,1.8,96,0.04,,,0.00,WUHU216HW,2013-01-29 02:20:00,
2013-01-28 18:25:00,42.1,40.8,29.99,SW,225,0.0,1.8,95,0.04,,,0.00,WUHU216HW,2013-01-29 02:25:00,
2013-01-28 18:30:00,42.1,41.0,29.99,WSW,248,1.1,1.8,96,0.03,,,0.00,WUHU216HW,2013-01-29 02:30:00,
2013-01-28 18:35:00,42.1,41.0,29.99,SSE,158,0.2,1.8,96,0.04,,,0.00,WUHU216HW,2013-01-29 02:35:00,
2013-01-28 18:40:00,42.1,41.0,29.98,SSE,158,0.4,1.1,96,0.05,,,0.00,WUHU216HW,2013-01-29 02:40:00,
2013-01-28 18:45:00,42.1,41.0,29.99,WSW,248,1.8,1.8,96,0.05,,,0.00,WUHU216HW,2013-01-29 02:45:00,
2013-01-28 18:50:00,42.1,41.0,29.99,West,270,0.9,1.8,96,0.04,,,0.00,WUHU216HW,2013-01-29 02:50:00,
2013-01-28 18:55:00,42.1,41.0,29.98,West,270,0.0,1.1,96,0.04,,,0.00,WUHU216HW,2013-01-29 02:55:00,
2013-01-28 19:00:00,42.1,41.0,29.99,West,270,0.9,0.9,96,0.04,,,0.00,WUHU216HW,2013-01-29 03:00:00,
2013-01-28 19:05:00,41.9,40.9,29.98,SSW,203,0.4,1.3,96,0.03,,,0.00,WUHU216HW,2013-01-29 03:05:00,
2013-01-28 19:10:00,41.9,40.9,29.98,SSE,158,0.4,1.8,96,0.03,,,0.00,WUHU216HW,2013-01-29 03:10:00,
2013-01-28 19:15:00,41.9,40.9,29.98,SSE,158,0.2,1.8,96,0.02,,,0.00,WUHU216HW,2013-01-29 03:15:00,
2013-01-28 19:20:00,41.9,40.9,29.98,SSE,158,0.7,1.1,96,0.02,,,0.00,WUHU216HW,2013-01-29 03:20:00,
2013-01-28 19:25:00,41.8,40.7,29.98,SSW,203,0.2,1.1,96,0.02,,,0.00,WUHU216HW,2013-01-29 03:25:00,
2013-01-28 19:30:00,41.8,40.7,29.98,South,180,0.2,1.8,96,0.01,,,0.00,WUHU216HW,2013-01-29 03:30:00,
2013-01-28 19:35:00,41.8,40.7,29.98,WSW,248,1.1,1.8,96,0.02,,,0.00,WUHU216HW,2013-01-29 03:35:00,
2013-01-28 19:40:00,41.8,40.7,29.98,WSW,248,0.2,1.1,96,0.01,,,0.00,WUHU216HW,2013-01-29 03:40:00,
2013-01-28 19:45:00,41.8,40.7,29.98,SSE,158,0.9,0.9,96,0.01,,,0.00,WUHU216HW,2013-01-29 03:45:00,
2013-01-28 19:50:00,41.8,40.7,29.98,SSE,158,0.0,0.9,96,0.01,,,0.00,WUHU216HW,2013-01-29 03:50:00,
2013-01-28 19:55:00,41.8,40.7,29.98,WSW,248,0.0,0.7,96,0.01,,,0.00,WUHU216HW,2013-01-29 03:55:00,
2013-01-28 20:00:00,41.8,40.7,29.99,WSW,248,0.0,0.7,96,0.01,,,0.00,WUHU216HW,2013-01-29 04:00:00,
2013-01-28 20:05:00,41.8,40.7,29.98,South,180,0.4,0.7,96,0.01,,,0.00,WUHU216HW,2013-01-29 04:05:00,
2013-01-28 20:10:00,41.8,40.7,29.98,SSE,158,0.4,0.7,96,0.01,,,0.00,WUHU216HW,2013-01-29 04:10:00,
2013-01-28 20:15:00,41.8,40.7,29.99,SSW,203,1.1,1.8,96,0.01,,,0.00,WUHU216HW,2013-01-29 04:15:00,
2013-01-28 20:20:00,41.8,40.7,29.98,SE,135,0.7,1.8,96,0.01,,,0.00,WUHU216HW,2013-01-29 04:20:00,
2013-01-28 20:25:00,41.8,40.7,29.99,SSE,158,0.4,1.1,96,0.01,,,0.00,WUHU216HW,2013-01-29 04:25:00,
2013-01-28 20:30:00,41.8,40.7,29.99,SW,225,0.2,1.1,96,0.00,,,0.00,WUHU216HW,2013-01-29 04:30:00,
2013-01-28 20:35:00,41.8,40.7,29.98,SE,135,0.7,1.1,96,0.00,,,0.00,WUHU216HW,2013-01-29 04:35:00,
2013-01-28 20:40:00,41.8,40.7,29.99,WSW,248,0.7,1.1,96,0.01,,,0.00,WUHU216HW,2013-01-29 04:40:00,
2013-01-28 20:45:00,41.6,40.5,29.99,SE,135,0.4,1.1,96,0.01,,,0.00,WUHU216HW,2013-01-29 04:45:00,
2013-01-28 20:50:00,41.8,40.7,30.00,WSW,248,0.2,1.1,96,0.01,,,0.00,WUHU216HW,2013-01-29 04:50:00,
2013-01-28 20:55:00,41.8,40.7,30.00,SW,225,0.4,1.1,96,0.01,,,0.00,WUHU216HW,2013-01-29 04:55:00,
2013-01-28 21:00:00,41.8,40.7,30.00,SW,225,0.4,0.4,96,0.01,,,0.00,WUHU216HW,2013-01-29 05:00:00,
2013-01-28 21:02:00,41.8,40.7,30.00,WSW,248,0.4,0.4,96,0.01,,,0.00,WUHU216HW,2013-01-29 05:02:00,
2013-01-28 21:03:00,41.8,40.7,30.00,WSW,248,0.4,0.9,96,0.01,,,0.00,WUHU216HW,2013-01-29 05:03:00,
2013-01-28 21:08:00,41.8,40.7,30.00,WSW,248,0.0,0.9,96,0.01,,,0.00,WUHU216HW,2013-01-29 05:08:00,
2013-01-28 21:13:00,41.8,40.7,30.00,SSW,203,0.9,1.1,96,0.02,,,0.00,WUHU216HW,2013-01-29 05:13:00,
2013-01-28 21:18:00,41.8,40.7,30.00,SSE,158,0.4,1.1,96,0.02,,,0.00,WUHU216HW,2013-01-29 05:18:00,
2013-01-28 21:23:00,41.6,40.5,30.00,South,180,0.2,0.9,96,0.02,,,0.00,WUHU216HW,2013-01-29 05:23:00,
2013-01-28 21:28:00,41.6,40.5,30.01,SSW,203,0.4,0.9,96,0.02,,,0.00,WUHU216HW,2013-01-29 05:28:00,
2013-01-28 21:33:00,41.6,40.5,30.01,SSW,203,0.0,0.4,96,0.03,,,0.00,WUHU216HW,2013-01-29 05:33:00,
2013-01-28 21:38:00,41.6,40.5,30.00,SW,225,0.2,0.9,96,0.02,,,0.00,WUHU216HW,2013-01-29 05:38:00,
2013-01-28 21:43:00,41.6,40.5,30.00,SW,225,0.0,0.9,96,0.03,,,0.00,WUHU216HW,2013-01-29 05:43:00,
2013-01-28 21:48:00,41.6,40.5,30.00,SSW,203,0.0,0.4,96,0.03,,,0.00,WUHU216HW,2013-01-29 05:48:00,
2013-01-28 21:53:00,41.6,40.5,30.01,WSW,248,0.0,0.4,96,0.03,,,0.00,WUHU216HW,2013-01-29 05:53:00,
2013-01-28 21:58:00,41.8,40.7,30.01,South,180,0.0,1.1,96,0.03,,,0.00,WUHU216HW,2013-01-29 05:58:00,
2013-01-28 22:03:00,41.6,40.5,30.01,SSW,203,0.2,1.1,96,0.03,,,0.00,WUHU216HW,2013-01-29 06:03:00,
2013-01-28 22:08:00,41.6,40.5,30.01,SSE,158,0.4,0.7,96,0.02,,,0.00,WUHU216HW,2013-01-29 06:08:00,
2013-01-28 22:13:00,41.6,40.5,30.01,WSW,248,0.4,0.7,96,0.03,,,0.00,WUHU216HW,2013-01-29 06:13:00,
2013-01-28 22:18:00,41.6,40.5,30.01,South,180,0.7,0.7,96,0.03,,,0.00,WUHU216HW,2013-01-29 06:18:00,
2013-01-28 22:23:00,41.6,40.5,30.02,WSW,248,1.8,1.8,96,0.03,,,0.00,WUHU216HW,2013-01-29 06:23:00,
2013-01-28 22:28:00,41.6,40.5,30.02,WSW,248,0.7,2.2,96,0.02,,,0.00,WUHU216HW,2013-01-29 06:28:00,
2013-01-28 22:33:00,41.6,40.5,30.01,NW,315,0.7,2.2,96,0.02,,,0.00,WUHU216HW,2013-01-29 06:33:00,
2013-01-28 22:38:00,41.6,40.5,30.02,SE,135,0.2,0.7,96,0.01,,,0.00,WUHU216HW,2013-01-29 06:38:00,
2013-01-28 22:43:00,41.8,40.7,30.02,WSW,248,1.1,1.1,96,0.01,,,0.00,WUHU216HW,2013-01-29 06:43:00,
2013-01-28 22:48:00,41.8,40.7,30.02,SSE,158,0.4,1.1,96,0.01,,,0.00,WUHU216HW,2013-01-29 06:48:00,
2013-01-28 22:53:00,41.8,40.7,30.02,SSW,203,0.2,1.3,96,0.01,,,0.00,WUHU216HW,2013-01-29 06:53:00,
2013-01-28 22:58:00,41.8,40.7,30.03,SSW,203,0.7,1.3,96,0.01,,,0.00,WUHU216HW,2013-01-29 06:58:00,
2013-01-28 23:03:00,41.8,40.7,30.02,WSW,248,0.4,0.7,96,0.01,,,0.00,WUHU216HW,2013-01-29 07:03:00,
2013-01-28 23:08:00,41.8,40.7,30.03,SSW,203,0.7,1.1,96,0.01,,,0.00,WUHU216HW,2013-01-29 07:08:00,
2013-01-28 23:13:00,41.8,40.7,30.03,SSE,158,0.0,1.1,96,0.01,,,0.00,WUHU216HW,2013-01-29 07:13:00,
2013-01-28 23:18:00,41.8,40.7,30.03,SSW,203,0.7,1.1,96,0.01,,,0.00,WUHU216HW,2013-01-29 07:18:00,
2013-01-28 23:23:00,41.8,40.7,30.03,SSW,203,0.4,1.1,96,0.01,,,0.00,WUHU216HW,2013-01-29 07:23:00,
2013-01-28 23:28:00,41.8,40.7,30.03,SSW,203,0.4,1.1,96,0.01,,,0.00,WUHU216HW,2013-01-29 07:28:00,
2013-01-28 23:33:00,41.8,40.7,30.04,SSW,203,0.4,1.6,96,0.01,,,0.00,WUHU216HW,2013-01-29 07:33:00,
2013-01-28 23:38:00,41.8,40.7,30.04,South,180,0.9,1.6,96,0.01,,,0.00,WUHU216HW,2013-01-29 07:38:00,
2013-01-28 23:43:00,41.8,40.7,30.03,SW,225,0.4,1.1,96,0.01,,,0.00,WUHU216HW,2013-01-29 07:43:00,
2013-01-28 23:48:00,41.8,40.7,30.04,SSE,158,0.9,0.9,96,0.01,,,0.00,WUHU216HW,2013-01-29 07:48:00,
2013-01-28 23:53:00,41.8,40.7,30.04,NE,45,0.7,1.1,96,0.01,,,0.00,WUHU216HW,2013-01-29 07:53:00,
2013-01-28 23:58:00,41.8,40.7,30.04,SSE,158,0.4,1.3,96,0.01,,,0.00,WUHU216HW,2013-01-29 07:58:00,